Wind_Speed
29 29 30 31 32 33 34 35 36 36 37 38 39 40 40 41 41 42 42 42 44 45 46 46 47 47 49 49 50 50 50 50 50 50 51 52 53 54 55 55 56 56 57
31 32 31 31 31 32 33 34 34 36 37 39 39 39 40 42 43 44 44 44 45 46 47 47 47 48 49 50 50 50 51 51 51 52 53 54 54 55 56 56 57 57 58
32 33 33 33 34 34 35 35 36 37 37 38 39 40 41 42 44 45 45 46 46 46 46 47 48 49 49 50 50 51 52 53 53 53 53 54 55 57 57 58 58 58 59
32 33 34 35 36 37 37 38 39 39 39 39 40 41 42 43 44 44 45 47 47 46 46 47 48 49 49 51 52 53 53 54 54 54 53 54 55 56 57 58 59 59 60
32 33 34 35 36 37 38 39 40 41 42 42 43 43 44 44 45 45 46 47 47 47 47 48 48 49 50 51 52 53 54 54 54 54 54 54 55 56 57 59 59 59 59
32 33 35 36 38 39 40 41 41 42 43 43 44 44 45 45 46 45 46 47 47 47 47 48 49 49 50 51 52 53 53 53 54 54 54 55 55 57 58 58 59 59 59
32 33 34 35 37 39 40 41 42 42 43 43 43 44 44 45 45 46 46 47 46 46 47 48 49 49 50 51 52 52 52 53 53 54 55 55 56 57 58 58 59 59 60
33 34 35 36 36 38 39 40 40 41 42 42 42 43 44 44 44 45 46 46 46 47 48 49 49 49 50 51 51 51 52 52 53 55 55 56 56 57 58 58 58 59 59
33 34 35 36 37 38 39 40 40 41 41 42 42 43 44 44 45 46 47 47 48 48 48 49 49 50 50 50 51 51 52 52 53 54 54 55 56 57 59 59 59 60 59
34 35 35 36 37 38 39 39 40 40 41 42 43 43 44 44 45 46 47 48 48 48 48 49 49 50 50 51 51 52 52 52 53 53 53 55 56 57 58 59 59 60 59
36 36 37 38 38 39 39 40 41 41 42 42 43 44 44 45 46 46 47 48 49 49 49 49 49 49 50 51 52 52 52 52 52 53 54 55 56 57 57 58 59 59 58
38 39 39 40 40 40 41 41 41 42 42 43 43 43 44 45 45 46 47 47 48 48 48 48 48 49 49 50 51 52 52 53 53 53 54 55 56 57 57 57 58 57 57
40 40 40 41 41 41 42 42 43 43 43 43 43 44 44 45 45 46 47 47 48 47 47 47 48 48 49 50 50 51 52 53 53 54 55 56 56 56 56 56 56 55 54
41 41 41 42 42 42 43 43 43 43 43 43 43 43 44 45 45 46 47 47 47 48 48 48 48 48 49 50 50 50 51 53 54 54 55 56 56 55 55 54 54 53 52
42 42 42 42 42 43 42 42 43 43 43 44 44 44 45 45 46 46 47 47 48 49 49 49 48 48 48 49 50 51 51 52 53 54 54 54 54 53 52 51 51 50 49
42 42 42 42 42 42 42 42 43 43 44 45 45 45 45 46 46 47 47 47 48 49 49 48 48 49 49 49 50 50 51 51 52 52 52 52 51 49 48 48 48 47 46
41 41 42 42 42 42 42 42 43 43 44 45 45 45 46 46 46 46 46 47 47 48 48 48 48 48 48 48 49 50 50 50 50 50 49 48 46 45 45 44 44 43 42
41 41 42 42 42 42 42 43 43 44 44 44 44 45 46 46 46 46 46 46 46 47 47 47 47 47 47 47 48 48 47 47 47 46 45 43 42 42 41 40 39 39 39
41 41 41 42 42 42 42 43 43 43 43 43 43 44 45 45 46 46 46 46 45 45 45 45 45 45 45 45 45 45 45 44 43 42 40 40 39 39 38 37 36 35 35
41 41 41 41 41 42 42 42 42 42 42 42 43 43 44 44 43 43 43 43 43 43 43 43 43 43 43 43 43 42 42 40 39 38 37 37 36 35 34 33 33 32 33
41 41 41 41 41 41 41 41 41 42 42 42 42 43 43 42 42 41 41 41 41 41 41 41 41 41 41 41 40 39 37 36 35 35 34 33 33 32 32 31 31 31 31
40 40 40 40 40 40 41 41 41 41 41 41 41 41 41 41 40 39 40 40 40 40 40 40 39 39 39 38 37 36 34 34 33 32 31 30 30 30 30 30 30 30 30
40 40 40 40 40 40 40 40 40 40 40 40 39 39 38 38 38 38 38 38 37 37 37 37 37 36 36 35 34 33 32 31 30 29 28 28 28 29 28 28 28 28 28
39 39 39 38 38 38 38 38 38 38 38 37 36 36 36 36 36 36 36 36 36 36 35 35 34 34 33 31 30 29 29 28 27 27 27 27 27 28 27 27 26 26 25
37 37 36 36 36 36 36 35 34 34 34 34 34 34 34 34 34 35 35 34 34 34 33 33 32 31 30 29 28 27 27 27 27 27 27 27 26 26 25 24 24 23 23
35 34 34 33 33 33 33 32 32 32 32 32 32 33 33 33 33 33 33 32 32 31 31 30 30 28 27 27 26 26 26 26 26 26 26 25 24 23 23 22 21 21 21
Wind_Direction
260 262 263 262 260 260 261 262 263 263 264 264 263 263 264 264 264 266 267 268 269 269 269 270 271 272 272 272 274 275 276 277 278 279 280 281 282 283 283 284 284 284 285
263 263 265 265 263 263 263 264 265 266 267 267 265 265 265 267 268 268 268 269 270 271 271 271 272 274 274 274 275 276 277 278 279 281 282 282 283 283 284 285 285 285 286
267 266 266 265 263 263 265 266 266 267 268 268 268 269 269 269 270 270 270 271 272 273 273 273 274 275 276 275 276 277 278 279 281 282 282 282 283 283 284 285 286 286 286
266 265 265 264 264 264 266 267 267 268 269 270 271 271 270 270 270 271 272 272 273 274 275 275 276 276 276 276 277 278 279 279 280 281 282 282 283 283 284 285 286 287 287
268 267 267 266 266 267 268 268 268 269 270 270 271 271 271 270 270 271 272 273 273 274 275 275 276 276 276 277 278 279 279 280 281 282 283 283 284 285 286 287 287 288 288
271 269 269 268 267 269 270 270 270 270 270 270 270 270 270 270 271 272 272 272 273 274 275 275 276 276 277 278 279 280 281 282 282 282 283 284 286 287 288 288 289 289 289
273 272 272 271 270 271 272 272 272 272 271 272 271 271 271 271 271 272 273 273 274 274 275 276 277 278 279 280 281 282 282 283 283 283 284 285 286 287 288 289 289 290 291
274 274 273 274 274 273 274 274 274 274 274 274 273 273 273 272 273 273 274 275 276 276 276 277 278 279 280 281 281 282 282 283 283 284 285 285 286 287 287 289 290 291 292
275 275 275 275 275 275 275 275 275 275 276 275 275 274 273 273 274 274 274 275 276 277 278 278 279 280 281 281 281 282 283 284 285 285 286 287 287 288 289 290 291 292 292
277 277 276 276 276 276 276 275 275 275 276 276 276 275 275 275 275 275 275 276 277 278 279 279 280 281 281 282 282 283 284 285 286 286 287 287 288 289 290 291 292 292 292
278 277 277 277 277 277 277 277 276 277 277 277 277 276 277 277 276 277 277 278 278 279 279 280 281 281 282 283 283 284 285 285 286 286 287 289 289 290 290 291 291 292 292
279 277 277 277 277 278 278 277 277 277 277 277 277 277 277 278 278 278 278 279 279 280 281 281 282 283 283 284 284 285 286 286 287 288 289 290 290 290 290 290 291 291 292
279 278 278 278 278 278 278 278 277 277 277 277 276 277 277 277 278 279 279 280 280 281 282 282 283 283 284 285 286 287 287 288 288 289 289 290 291 291 290 290 290 290 292
279 279 278 279 279 278 278 279 278 277 277 277 277 277 277 277 278 279 279 279 280 281 282 282 283 284 285 286 287 287 288 288 288 289 290 290 290 290 290 290 290 290 290
280 279 280 279 279 279 279 279 279 278 277 278 279 278 278 278 278 279 279 280 280 281 282 283 284 285 285 286 287 288 288 288 289 289 290 290 290 289 289 289 290 290 290
281 281 281 280 280 280 280 280 280 280 279 279 280 280 279 279 280 280 279 280 281 282 283 284 285 285 286 286 287 287 288 288 289 290 290 290 290 289 290 290 290 290 290
282 282 282 281 281 281 280 280 280 280 280 280 281 281 281 280 280 280 281 281 282 283 285 285 285 285 286 286 287 288 288 289 289 290 290 290 290 290 290 291 291 291 292
284 283 282 281 281 280 280 280 280 281 281 280 280 281 281 281 281 282 282 283 283 284 285 285 285 285 286 287 288 288 288 289 289 290 290 290 291 291 292 292 292 292 292
284 284 283 282 281 280 280 280 281 281 281 280 280 281 282 282 283 283 283 283 283 284 285 285 285 285 286 287 288 288 288 289 289 289 289 290 291 292 292 293 293 293 293
284 284 283 283 282 281 281 281 281 281 281 281 282 282 282 283 283 284 283 283 283 283 283 284 284 284 285 286 287 288 288 289 288 288 289 290 291 292 293 293 294 294 295
284 284 283 284 283 282 282 282 282 283 282 282 282 283 283 284 283 283 282 282 283 283 283 284 284 284 286 287 288 288 288 287 287 288 289 289 291 292 293 293 293 294 296
284 284 284 284 284 283 283 283 284 284 284 284 283 283 283 283 282 282 283 283 283 283 284 284 284 285 286 287 287 287 287 287 288 289 289 290 291 292 293 294 294 295 295
285 284 284 284 284 283 283 283 283 283 283 283 283 283 283 283 283 283 283 283 283 283 284 284 285 286 287 287 287 286 286 287 287 288 289 290 291 293 294 294 295 296 296
285 285 284 284 284 283 284 284 283 282 282 283 283 283 283 283 283 283 282 282 283 284 284 285 285 286 286 286 285 285 285 286 286 287 289 291 292 293 294 295 295 296 297
285 285 285 284 284 284 284 284 284 284 283 283 284 283 283 283 284 284 284 284 284 284 285 285 285 285 284 284 284 284 285 284 285 286 288 290 292 293 293 294 296 297 297
285 285 286 286 286 286 285 284 284 284 284 285 285 285 285 285 285 284 284 284 283 284 285 286 285 284 283 282 283 284 284 284 285 287 288 289 291 292 293 294 296 297 298
Height
5664 5665 5666 5667 5668 5670 5671 5672 5673 5675 5676 5677 5678 5680 5681 5682 5683 5683 5684 5684 5685 5685 5685 5685 5685 5685 5684 5684 5683 5683 5682 5681 5681 5679 5677 5675 5673 5671 5668 5666 5663 5661 5658
5657 5658 5659 5660 5661 5662 5663 5664 5665 5666 5667 5668 5669 5670 5671 5671 5672 5672 5672 5673 5673 5673 5673 5673 5672 5672 5672 5671 5670 5669 5669 5668 5667 5666 5663 5661 5659 5656 5654 5651 5648 5645 5642
5650 5651 5651 5652 5653 5653 5654 5655 5656 5657 5657 5658 5658 5659 5659 5660 5660 5660 5660 5661 5661 5661 5660 5660 5659 5659 5659 5658 5657 5656 5655 5653 5652 5651 5649 5646 5644 5641 5638 5636 5633 5629 5625
5641 5641 5642 5643 5644 5644 5645 5645 5646 5646 5647 5647 5647 5648 5648 5648 5648 5648 5648 5648 5649 5648 5648 5647 5646 5646 5645 5644 5642 5641 5640 5638 5637 5635 5633 5631 5628 5625 5622 5620 5617 5613 5610
5632 5632 5633 5633 5634 5634 5635 5635 5635 5635 5635 5636 5636 5636 5636 5636 5636 5636 5636 5636 5636 5635 5635 5634 5633 5632 5630 5629 5628 5627 5625 5623 5622 5620 5618 5615 5613 5609 5606 5603 5600 5597 5594
5623 5623 5623 5623 5624 5624 5624 5624 5624 5624 5624 5624 5624 5624 5624 5623 5623 5623 5622 5623 5622 5622 5621 5620 5619 5618 5616 5615 5613 5612 5610 5608 5606 5604 5602 5599 5596 5593 5589 5586 5583 5581 5578
5614 5614 5614 5613 5613 5613 5613 5612 5612 5612 5612 5611 5611 5611 5611 5611 5610 5610 5609 5609 5609 5608 5607 5606 5605 5603 5602 5600 5599 5597 5595 5592 5591 5589 5587 5584 5580 5577 5574 5571 5567 5563 5560
5605 5605 5604 5604 5603 5602 5602 5601 5601 5600 5600 5599 5599 5599 5598 5598 5597 5596 5596 5595 5595 5594 5593 5592 5590 5589 5587 5586 5584 5583 5580 5578 5575 5573 5571 5568 5564 5560 5557 5554 5550 5547 5544
5595 5595 5594 5593 5592 5592 5591 5590 5589 5589 5588 5587 5587 5586 5586 5585 5583 5583 5582 5581 5581 5580 5579 5577 5576 5575 5573 5571 5570 5568 5566 5563 5560 5558 5555 5552 5548 5544 5540 5536 5533 5529 5526
5585 5584 5583 5582 5581 5580 5579 5578 5577 5577 5576 5575 5574 5573 5572 5571 5570 5569 5568 5567 5567 5566 5565 5563 5562 5560 5558 5556 5554 5553 5551 5549 5546 5543 5540 5537 5533 5529 5524 5519 5515 5511 5507
5575 5574 5573 5571 5570 5569 5568 5567 5566 5565 5564 5562 5561 5560 5559 5558 5557 5556 5554 5553 5553 5552 5551 5550 5548 5546 5544 5542 5540 5538 5536 5533 5531 5528 5525 5522 5517 5513 5508 5503 5498 5493 5489
5564 5563 5561 5560 5559 5557 5556 5555 5554 5552 5552 5550 5549 5548 5546 5545 5543 5542 5541 5540 5539 5538 5537 5535 5534 5531 5529 5527 5525 5523 5520 5518 5515 5513 5509 5506 5502 5498 5493 5488 5483 5478 5473
5552 5551 5549 5548 5547 5545 5544 5543 5541 5540 5539 5537 5536 5535 5533 5532 5530 5529 5527 5526 5524 5524 5523 5521 5519 5517 5515 5513 5510 5507 5505 5502 5499 5497 5493 5490 5486 5481 5477 5472 5467 5462 5459
5539 5538 5537 5536 5535 5533 5532 5530 5529 5527 5526 5525 5523 5522 5520 5519 5517 5515 5514 5512 5511 5509 5508 5507 5505 5503 5500 5498 5495 5493 5489 5486 5483 5481 5477 5474 5469 5465 5460 5456 5452 5448 5444
5527 5526 5524 5523 5522 5520 5519 5517 5516 5514 5513 5512 5510 5508 5507 5506 5503 5501 5500 5499 5497 5495 5494 5493 5491 5488 5486 5484 5481 5478 5475 5471 5468 5464 5461 5457 5453 5449 5445 5441 5437 5433 5429
5515 5513 5512 5510 5509 5507 5506 5505 5502 5501 5499 5498 5496 5495 5493 5491 5490 5488 5486 5484 5482 5481 5479 5478 5476 5474 5471 5469 5466 5463 5460 5456 5452 5449 5445 5441 5437 5434 5430 5426 5422 5419 5416
5502 5500 5499 5497 5496 5494 5493 5491 5490 5488 5486 5484 5483 5481 5479 5477 5475 5474 5472 5470 5468 5466 5465 5463 5461 5459 5456 5454 5451 5448 5445 5441 5437 5434 5430 5427 5423 5420 5416 5413 5409 5406 5403
5489 5487 5485 5484 5482 5481 5479 5478 5477 5475 5474 5471 5469 5467 5465 5463 5462 5460 5458 5456 5455 5453 5450 5448 5446 5444 5442 5439 5436 5433 5430 5427 5423 5420 5417 5414 5410 5407 5404 5401 5397 5394 5391
5476 5474 5472 5470 5469 5467 5466 5464 5463 5461 5459 5458 5456 5454 5452 5450 5448 5446 5444 5442 5441 5439 5436 5434 5432 5429 5427 5425 5422 5419 5416 5414 5411 5408 5405 5402 5399 5395 5393 5389 5386 5383 5380
5462 5460 5459 5457 5455 5454 5452 5450 5449 5447 5445 5444 5442 5440 5438 5436 5434 5432 5430 5428 5426 5425 5422 5420 5418 5416 5414 5411 5409 5406 5404 5401 5398 5396 5393 5390 5388 5385 5382 5379 5376 5373 5371
5449 5447 5446 5444 5442 5440 5438 5437 5435 5434 5432 5430 5428 5426 5424 5423 5421 5419 5417 5415 5413 5411 5409 5407 5405 5403 5401 5399 5396 5394 5392 5389 5387 5385 5382 5380 5378 5375 5372 5370 5367 5364 5362
5437 5435 5433 5431 5429 5427 5426 5424 5422 5421 5419 5417 5415 5413 5411 5409 5408 5406 5404 5402 5400 5398 5396 5395 5393 5391 5389 5387 5384 5383 5381 5379 5377 5375 5373 5370 5368 5366 5363 5361 5358 5355 5353
5424 5422 5420 5418 5416 5415 5413 5411 5409 5407 5406 5404 5402 5400 5398 5397 5395 5393 5392 5390 5388 5386 5384 5382 5381 5379 5377 5375 5373 5372 5370 5369 5367 5365 5363 5362 5359 5357 5355 5352 5350 5347 5344
5411 5409 5407 5406 5404 5402 5400 5398 5396 5395 5393 5391 5389 5388 5386 5384 5383 5381 5379 5378 5376 5375 5373 5371 5369 5367 5366 5364 5363 5361 5360 5359 5357 5356 5355 5353 5351 5349 5346 5344 5342 5339 5337
5399 5397 5395 5393 5392 5390 5388 5386 5385 5383 5381 5379 5378 5376 5374 5373 5371 5369 5368 5366 5365 5363 5362 5360 5358 5357 5356 5354 5353 5352 5351 5350 5349 5347 5346 5345 5343 5341 5339 5337 5335 5332 5330
5387 5385 5384 5382 5380 5378 5377 5375 5374 5372 5370 5368 5367 5365 5363 5361 5360 5358 5357 5355 5354 5353 5351 5350 5348 5347 5346 5345 5344 5343 5342 5341 5340 5339 5338 5336 5335 5333 5332 5330 5328 5326 5324